Temperature
7 7 8 7 7 7 7 7 6 6 6 5 5 4 4 4 4 4 4 4 4 4 4 4 5 5 5 5 5 5 5 6 6 5 6 6 6 6 6 6 6 6 6 6
7 8 7 7 7 7 7 7 6 6 6 5 5 5 4 4 4 4 4 4 4 4 4 4 4 4 4 4 4 4 4 5 5 5 5 5 5 5 5 5 5 5 5 6
6 7 7 6 6 6 7 7 7 6 6 5 4 4 4 4 4 4 4 4 4 4 3 3 3 3 3 3 3 3 3 3 4 4 4 4 4 4 4 4 4 4 4 4
5 6 7 7 7 7 7 6 6 6 5 5 5 5 5 5 5 4 4 4 3 3 3 3 3 3 3 3 3 3 3 2 2 2 2 3 3 3 3 3 3 3 3 3
5 6 6 7 7 7 6 6 6 5 5 4 4 4 4 4 4 4 4 3 3 3 3 2 2 2 2 2 2 2 2 2 1 1 1 1 1 1 2 2 2 2 2 2
5 7 7 8 7 7 7 6 6 5 4 4 4 3 3 4 4 4 3 3 3 2 2 2 2 2 2 2 1 1 1 1 0 0 0 0 0 0 0 0 0 1 1 1
5 6 6 6 6 6 6 6 6 6 5 5 4 4 5 4 4 3 3 3 2 2 2 2 1 1 1 1 1 0 0 -0 -0 -0 -1 -1 -1 -1 -1 -1 -1 -0 -0 0
4 5 6 6 5 5 5 6 6 6 6 5 5 5 4 4 3 3 3 2 2 2 1 1 1 0 0 0 -0 -1 -1 -1 -1 -1 -1 -1 -2 -2 -2 -2 -2 -1 -1 -1
4 5 6 6 6 7 7 7 6 6 6 6 5 4 4 3 3 2 2 2 1 1 1 0 -0 -0 -1 -1 -1 -1 -1 -1 -2 -2 -2 -2 -2 -2 -3 -3 -3 -3 -3 -3
4 4 5 6 7 7 7 7 7 6 6 5 5 4 3 3 2 2 2 1 1 0 0 -0 -1 -1 -1 -2 -2 -2 -2 -2 -2 -3 -3 -3 -3 -3 -4 -4 -4 -4 -4 -4
3 4 4 6 7 7 6 6 6 5 5 5 4 4 3 2 2 2 1 1 0 -0 -1 -1 -1 -2 -2 -2 -3 -3 -3 -3 -3 -4 -4 -4 -4 -4 -5 -5 -5 -5 -5 -5
4 5 4 6 7 7 6 6 5 5 4 4 3 3 3 2 2 1 0 -0 -1 -1 -1 -2 -2 -2 -3 -3 -4 -4 -4 -4 -4 -5 -5 -5 -5 -5 -5 -5 -5 -5 -6 -6
8 8 7 7 7 6 6 5 5 4 4 3 3 2 2 1 1 0 -0 -1 -1 -2 -2 -2 -3 -3 -3 -4 -4 -5 -5 -5 -5 -6 -6 -6 -6 -7 -6 -6 -6 -6 -6 -6
7 7 6 6 6 6 5 5 4 3 3 3 2 2 1 1 0 -0 -1 -1 -2 -2 -3 -3 -3 -4 -4 -5 -5 -5 -6 -6 -6 -7 -7 -7 -7 -7 -8 -7 -7 -7 -6 -6
6 6 6 6 6 5 4 4 3 3 2 2 1 1 1 0 -0 -1 -2 -2 -2 -3 -3 -4 -4 -4 -5 -5 -6 -6 -6 -7 -7 -7 -8 -8 -8 -8 -8 -8 -8 -8 -7 -7
5 5 5 5 5 4 4 3 3 2 2 1 1 0 -0 -1 -1 -2 -2 -3 -3 -3 -4 -4 -5 -5 -6 -6 -7 -7 -7 -7 -8 -8 -8 -8 -9 -9 -9 -8 -8 -8 -8 -8
4 4 4 4 4 3 3 3 3 2 1 1 0 -0 -1 -1 -2 -2 -3 -3 -4 -4 -5 -5 -6 -6 -7 -7 -7 -8 -8 -8 -8 -9 -9 -9 -9 -9 -9 -9 -9 -9 -8 -8
5 5 5 5 4 3 3 2 2 1 1 0 -0 -1 -1 -2 -2 -3 -3 -4 -4 -5 -5 -6 -6 -7 -7 -7 -8 -8 -9 -9 -9 -9 -9 -9 -9 -9 -9 -9 -9 -9 -9 -8
4 4 4 4 3 3 2 2 1 1 0 -0 -1 -1 -2 -2 -3 -3 -4 -4 -5 -5 -6 -6 -7 -7 -8 -8 -8 -9 -9 -9 -10 -10 -10 -10 -10 -10 -10 -10 -9 -9 -9 -9
3 3 3 3 3 2 2 1 1 0 -0 -1 -1 -2 -2 -3 -3 -4 -4 -5 -6 -6 -6 -7 -7 -8 -8 -8 -9 -9 -10 -10 -10 -10 -10 -10 -10 -10 -10 -10 -10 -9 -9 -9
3 3 3 2 2 2 1 1 0 -0 -1 -1 -2 -2 -3 -3 -4 -5 -5 -5 -6 -6 -7 -7 -8 -8 -9 -9 -10 -10 -10 -10 -10 -10 -10 -10 -10 -10 -10 -10 -10 -10 -10 -9
2 2 2 2 1 1 1 0 -0 -1 -1 -2 -2 -3 -3 -4 -4 -5 -5 -6 -7 -7 -7 -8 -8 -9 -9 -10 -10 -10 -10 -10 -11 -11 -11 -11 -11 -11 -11 -10 -10 -10 -10 -10
2 2 1 1 1 0 -0 -0 -1 -1 -2 -2 -3 -3 -4 -5 -5 -6 -6 -6 -7 -7 -8 -8 -9 -9 -10 -10 -10 -10 -10 -10 -11 -11 -11 -11 -11 -11 -11 -11 -10 -10 -10 -10
1 1 1 0 0 -0 -0 -1 -1 -2 -2 -3 -4 -4 -5 -5 -5 -6 -7 -7 -7 -8 -8 -9 -9 -9 -10 -10 -10 -10 -10 -10 -11 -11 -11 -11 -11 -11 -11 -11 -10 -10 -10 -10
1 1 0 0 -0 -0 -1 -1 -2 -2 -3 -4 -4 -5 -5 -6 -6 -6 -7 -7 -8 -8 -8 -9 -9 -9 -10 -10 -10 -10 -10 -11 -11 -11 -11 -11 -11 -11 -11 -11 -11 -10 -10 -10
1 0 0 -0 -0 -1 -1 -2 -2 -3 -3 -4 -4 -5 -5 -6 -6 -7 -7 -8 -8 -8 -9 -9 -9 -10 -10 -10 -10 -10 -11 -11 -11 -11 -11 -11 -11 -11 -11 -11 -11 -11 -10 -10
0 -0 -0 -1 -1 -1 -2 -2 -3 -3 -4 -4 -5 -5 -6 -6 -7 -7 -8 -8 -8 -9 -9 -9 -10 -10 -10 -10 -10 -10 -11 -11 -11 -11 -11 -11 -11 -11 -11 -11 -11 -11 -10 -10
Wind_Speed
1 1 1 3 4 5 4 2 4 5 6 6 6 5 4 4 4 4 4 4 5 5 5 6 7 7 7 8 8 8 8 9 9 8 8 8 8 9 8 8 8 7 6 5
4 3 3 4 6 5 4 4 6 6 2 3 5 5 4 4 4 3 2 2 3 4 5 5 6 6 7 7 7 7 7 7 7 8 8 8 8 8 8 8 8 7 7 7
2 5 3 4 4 2 1 1 4 4 5 6 5 6 6 5 4 3 2 1 1 2 2 3 3 4 5 5 5 6 6 7 7 7 8 8 8 8 8 8 8 8 7 7
0 3 1 5 2 1 2 1 1 3 5 7 6 5 3 4 5 3 2 1 0 1 2 2 2 3 3 4 4 5 5 6 6 6 7 7 7 8 8 7 7 7 8 8
2 0 4 5 2 2 3 2 2 5 6 5 5 4 1 1 4 4 2 2 1 0 1 2 3 3 3 4 4 5 5 6 6 6 7 7 7 8 6 6 7 7 7 8
2 1 4 4 3 2 3 3 4 7 8 7 7 3 4 3 3 3 2 1 1 0 1 2 3 3 4 5 5 6 6 6 6 6 6 7 7 7 6 6 7 8 8 7
3 3 6 4 3 4 3 6 5 7 8 8 7 5 3 4 3 2 1 1 1 1 2 3 4 3 4 5 6 7 7 7 7 6 7 7 7 6 7 7 8 8 9 8
3 3 6 4 6 7 7 2 5 6 7 7 5 4 4 4 3 2 1 0 0 1 3 4 4 4 5 7 7 7 7 7 8 7 7 7 7 7 7 7 8 8 8 9
7 7 4 5 6 5 5 5 5 6 6 7 6 5 5 4 3 2 2 2 1 2 4 5 5 4 6 7 7 7 7 8 8 8 7 7 7 8 7 6 6 7 7 8
5 7 6 5 4 3 5 6 6 6 7 7 7 6 5 4 3 3 3 2 2 3 4 6 6 6 6 8 8 7 8 9 8 8 8 7 6 6 7 7 7 8 8 8
6 6 4 5 7 7 5 5 6 6 6 7 7 6 5 4 4 3 3 2 2 3 5 7 7 7 7 7 7 8 8 9 8 8 8 8 8 7 8 8 9 10 9 8
8 8 7 7 7 8 8 8 8 7 6 5 6 6 5 4 3 3 3 2 3 4 6 7 7 8 8 7 7 7 8 8 7 7 8 8 9 10 13 14 18 19 18 16
7 4 5 4 5 7 8 8 7 7 7 5 4 4 4 3 2 2 2 3 4 5 6 7 7 8 8 8 7 7 8 9 8 8 8 9 9 9 11 13 16 17 18 19
6 5 3 5 6 7 7 7 6 6 5 5 4 3 2 2 1 2 3 4 5 5 6 6 7 8 8 8 8 8 9 10 10 8 8 9 9 9 10 11 12 9 12 17
6 6 6 5 6 7 7 7 6 5 4 4 3 3 3 2 2 3 4 4 4 5 6 7 8 8 8 8 9 9 9 8 8 8 8 9 9 9 9 11 11 11 10 11
3 4 6 7 8 8 7 7 7 6 5 4 3 3 2 2 2 3 3 3 4 6 7 7 8 8 8 8 9 8 8 13 12 9 9 9 9 9 10 10 10 10 10 9
7 7 7 8 8 8 7 7 7 7 5 5 4 3 1 0 1 3 4 4 5 6 7 7 8 8 8 8 8 8 8 10 14 11 9 9 10 10 10 10 10 10 10 11
9 9 9 9 9 8 7 7 7 6 5 4 4 3 2 1 2 4 4 5 5 6 5 6 8 8 8 9 8 7 8 8 9 9 9 10 10 9 9 10 10 11 10 11
5 7 7 7 8 8 7 7 6 5 5 4 4 3 2 2 3 3 4 5 5 6 6 7 12 9 9 10 11 7 8 9 9 9 10 13 12 9 9 9 10 10 10 10
5 6 7 7 6 6 7 6 6 5 4 4 4 2 1 2 2 3 4 4 4 4 6 9 8 7 9 10 12 6 7 8 9 10 10 9 10 10 10 10 10 9 9 9
6 7 7 7 6 6 6 7 7 6 4 4 3 2 2 2 2 3 3 4 4 5 7 10 7 7 8 10 11 6 7 8 9 9 9 10 10 10 10 10 9 9 9 9
5 6 7 7 7 6 5 5 6 6 5 3 2 2 2 2 3 3 4 4 5 9 7 5 6 10 13 12 6 6 7 8 8 8 9 9 9 9 10 10 9 9 8 8
5 5 6 7 7 6 5 4 5 5 4 4 3 2 2 3 2 3 4 3 4 9 7 5 10 15 16 8 6 7 8 8 8 9 9 9 9 9 9 10 9 8 8 8
5 6 6 6 6 6 5 4 4 3 3 3 2 2 2 2 2 3 3 7 9 10 5 9 14 15 13 6 6 7 7 8 8 8 9 9 9 8 9 9 9 8 8 9
6 6 6 7 7 5 5 5 5 4 3 2 2 2 2 2 3 3 3 4 8 9 5 9 13 13 8 6 7 7 7 8 9 9 8 8 8 8 8 8 8 8 8 8
6 6 6 6 5 5 5 5 4 4 3 2 2 2 2 2 2 3 3 4 6 8 6 5 7 9 6 7 7 8 8 9 9 9 8 9 9 9 9 9 10 9 8 8
5 5 4 4 4 5 5 5 5 4 4 3 3 2 2 2 2 2 3 3 4 5 5 5 5 6 6 7 7 8 7 7 8 8 8 8 8 8 9 9 9 8 8 8
Wind_Direction
326 319 41 23 7 22 59 131 152 163 162 177 169 155 144 129 110 91 74 62 50 41 32 29 29 28 27 24 20 22 26 27 21 13 12 11 8 4 0 360 356 349 342 337
354 359 27 22 6 15 40 74 109 121 155 168 148 137 134 140 130 115 100 75 51 38 29 21 18 17 17 15 11 15 19 16 9 8 8 5 360 357 356 353 348 345 342 334
308 317 6 337 316 344 50 82 150 176 192 154 154 166 170 170 158 155 155 120 61 35 16 3 359 8 6 358 1 8 7 1 358 357 357 354 351 351 348 342 339 336 329 325
10 27 298 266 287 187 118 0 165 150 153 162 167 161 155 162 160 161 160 142 26 0 355 351 354 354 349 354 355 353 349 345 343 343 341 339 341 338 332 328 328 324 319 315
105 28 280 283 243 188 171 283 218 159 150 141 125 95 352 201 163 168 171 169 197 261 318 343 336 327 339 345 344 343 337 331 329 330 329 329 329 323 317 318 317 314 311 309
135 182 238 242 183 149 101 276 227 170 164 159 141 173 239 194 150 138 126 128 127 16 7 342 324 334 348 338 337 330 322 317 315 317 318 317 314 310 308 309 305 306 303 298
172 228 262 239 148 113 166 244 185 169 170 168 184 204 186 151 146 147 143 143 86 35 343 317 322 340 334 325 316 308 310 312 315 315 311 306 307 306 307 307 308 306 300 296
173 212 257 189 145 184 214 175 151 162 168 168 172 148 145 154 159 160 158 287 8 340 317 314 323 331 318 307 300 305 309 310 309 308 308 311 305 303 302 303 305 304 302 302
199 220 250 198 202 209 168 164 171 165 166 157 158 171 175 180 185 202 222 254 275 286 302 308 311 309 300 296 301 304 303 300 299 300 298 297 297 301 303 299 297 298 297 298
259 261 246 230 220 197 179 177 172 162 159 160 169 179 185 189 201 217 233 249 266 290 300 301 304 302 288 294 302 304 303 302 300 300 299 297 293 290 292 292 292 293 293 294
255 268 272 249 216 200 177 156 148 149 160 168 167 180 188 197 212 224 242 262 273 281 287 292 298 298 296 298 303 302 299 298 298 295 293 296 292 285 286 276 278 288 286 285
228 219 200 226 208 181 171 177 172 161 160 165 171 182 186 200 213 224 250 271 286 287 288 293 298 299 301 301 300 298 299 299 298 297 295 293 295 297 292 289 293 293 290 289
220 199 192 211 174 172 174 177 171 168 167 166 170 172 172 188 206 227 266 283 285 288 292 297 302 302 303 305 303 297 294 297 297 296 295 295 295 296 300 301 295 292 292 293
200 154 166 187 186 174 163 157 149 145 151 154 154 145 143 160 212 260 277 284 292 298 301 303 304 303 306 310 308 302 297 298 299 292 292 292 291 290 291 296 300 296 294 294
210 196 187 171 150 146 142 139 141 151 150 143 138 142 154 185 244 272 288 302 311 310 307 308 306 306 314 315 312 306 303 299 296 293 292 293 292 291 290 289 290 292 294 295
180 143 145 152 160 159 155 159 165 174 168 164 165 178 192 213 258 286 302 313 313 309 310 309 308 310 316 317 315 309 304 306 310 304 299 298 295 293 293 292 292 292 292 293
163 177 179 180 179 177 176 175 174 173 170 174 184 181 169 210 299 303 307 310 302 297 301 307 310 313 318 316 311 306 304 307 312 309 302 301 299 295 294 294 293 293 290 290
199 195 184 179 177 174 173 167 164 164 172 175 158 146 156 221 275 292 304 312 311 308 307 311 312 318 318 317 313 307 306 306 309 307 306 304 302 299 299 297 297 295 295 295
179 171 168 167 165 161 162 164 163 158 153 147 148 163 196 241 267 286 302 309 309 309 309 313 324 329 317 314 319 305 308 309 311 310 308 309 311 306 303 301 299 298 298 297
143 143 143 143 143 147 152 152 147 144 147 146 148 157 209 261 277 290 298 290 277 280 295 311 321 316 310 307 316 309 311 311 312 312 312 310 310 309 307 305 306 304 302 302
147 144 142 141 138 139 146 148 148 151 152 152 163 190 231 264 275 279 289 296 298 303 309 321 322 309 307 315 324 319 313 311 312 311 310 311 311 311 311 310 311 312 311 310
156 152 151 146 142 141 143 143 147 149 151 160 176 197 234 270 282 283 269 267 293 316 322 307 306 313 324 331 327 317 314 313 312 312 310 310 310 310 310 312 311 310 310 310
162 160 158 157 154 148 140 147 155 157 165 176 188 207 231 253 262 276 295 294 301 315 322 303 315 323 330 336 322 316 315 314 313 312 311 310 309 310 310 310 309 309 310 311
162 160 158 149 140 145 160 174 167 165 170 177 194 212 228 257 267 248 260 305 318 320 315 315 324 328 334 331 314 312 312 312 311 309 311 312 312 310 309 310 310 310 309 309
164 160 156 156 165 178 177 166 158 165 171 186 215 235 241 236 245 270 281 291 312 322 316 320 326 331 331 311 310 310 309 307 309 314 314 314 311 310 308 307 308 309 308 307
171 174 179 183 179 172 166 165 172 179 182 200 224 232 239 249 260 273 282 289 298 317 316 306 310 318 315 310 309 310 309 311 314 314 310 309 309 310 310 311 309 307 306 306
166 166 164 168 177 175 171 172 180 189 192 200 220 224 235 255 270 282 290 295 301 304 303 305 307 309 309 309 310 311 311 310 311 310 310 308 308 308 309 309 309 307 306 306
Height
1473 1470 1469 1468 1467 1464 1465 1465 1469 1471 1472 1474 1475 1476 1477 1477 1477 1477 1476 1475 1474 1472 1471 1470 1469 1467 1466 1465 1463 1462 1461 1459 1457 1456 1455 1453 1452 1450 1449 1448 1447 1446 1445 1444
1475 1470 1470 1470 1469 1467 1466 1466 1469 1471 1474 1473 1474 1476 1477 1477 1478 1477 1477 1477 1476 1474 1473 1471 1470 1468 1467 1465 1464 1462 1460 1459 1457 1455 1453 1452 1450 1448 1447 1445 1444 1442 1441 1440
1481 1475 1472 1475 1472 1470 1468 1468 1468 1470 1472 1473 1475 1476 1476 1477 1477 1477 1477 1477 1476 1475 1474 1472 1471 1469 1467 1465 1464 1461 1459 1458 1456 1454 1452 1449 1447 1445 1443 1441 1440 1438 1436 1435
1484 1479 1479 1475 1470 1469 1469 1469 1468 1468 1470 1471 1473 1474 1476 1476 1476 1476 1476 1476 1475 1474 1473 1472 1471 1469 1467 1465 1463 1461 1459 1457 1454 1452 1449 1447 1445 1442 1440 1438 1435 1433 1432 1431
1486 1483 1478 1472 1469 1469 1470 1470 1468 1469 1470 1472 1473 1475 1476 1476 1476 1476 1476 1476 1475 1474 1473 1471 1470 1468 1466 1464 1461 1459 1457 1454 1452 1449 1447 1444 1442 1439 1437 1434 1431 1429 1427 1426
1484 1478 1473 1468 1467 1467 1471 1471 1467 1467 1469 1471 1473 1477 1476 1474 1475 1475 1475 1475 1474 1473 1472 1470 1468 1466 1464 1461 1459 1456 1454 1452 1449 1447 1444 1441 1438 1435 1432 1429 1427 1424 1422 1420
1483 1480 1474 1466 1466 1468 1476 1468 1464 1465 1467 1469 1470 1472 1472 1472 1473 1474 1474 1473 1472 1471 1470 1468 1466 1464 1461 1459 1456 1454 1451 1448 1446 1443 1440 1437 1434 1431 1428 1425 1422 1419 1416 1414
1483 1480 1475 1464 1465 1468 1465 1461 1462 1464 1466 1467 1469 1470 1470 1471 1472 1472 1472 1471 1470 1469 1467 1466 1463 1461 1458 1456 1453 1450 1447 1444 1442 1439 1436 1433 1429 1426 1423 1420 1416 1413 1410 1408
1475 1471 1462 1460 1460 1460 1460 1460 1461 1463 1465 1466 1467 1468 1469 1470 1470 1470 1470 1469 1468 1466 1465 1463 1461 1458 1455 1452 1449 1446 1443 1440 1437 1434 1431 1428 1424 1420 1417 1414 1411 1407 1405 1401
1468 1462 1459 1458 1458 1458 1459 1460 1461 1462 1464 1465 1466 1467 1468 1468 1468 1468 1467 1467 1465 1463 1461 1459 1457 1454 1451 1448 1445 1441 1438 1435 1431 1428 1425 1422 1419 1415 1412 1408 1405 1402 1399 1396
1465 1459 1456 1455 1455 1456 1457 1459 1460 1461 1462 1463 1464 1465 1466 1466 1466 1465 1465 1463 1462 1460 1457 1455 1453 1450 1447 1444 1440 1436 1433 1429 1426 1422 1418 1415 1412 1409 1405 1402 1400 1397 1393 1390
1457 1451 1452 1450 1451 1453 1455 1456 1457 1459 1460 1461 1462 1463 1463 1463 1463 1462 1461 1460 1458 1456 1454 1451 1448 1445 1442 1439 1435 1431 1427 1423 1420 1416 1412 1408 1404 1401 1398 1396 1393 1390 1387 1385
1447 1447 1448 1448 1449 1451 1453 1454 1456 1457 1458 1459 1460 1460 1460 1460 1460 1459 1458 1456 1454 1452 1449 1446 1443 1440 1437 1433 1429 1426 1422 1418 1414 1410 1406 1402 1398 1394 1389 1387 1385 1382 1380 1377
1444 1445 1445 1445 1447 1449 1450 1452 1454 1455 1456 1457 1457 1458 1458 1457 1457 1456 1454 1452 1450 1447 1445 1442 1438 1435 1431 1428 1424 1420 1416 1412 1408 1404 1400 1396 1392 1389 1385 1380 1376 1373 1372 1370
1440 1441 1442 1442 1444 1446 1448 1449 1451 1452 1453 1454 1455 1455 1455 1454 1453 1452 1450 1448 1446 1443 1440 1437 1433 1430 1426 1422 1418 1414 1410 1406 1402 1398 1394 1390 1387 1383 1379 1375 1371 1367 1364 1362
1436 1437 1438 1439 1441 1443 1444 1446 1448 1449 1450 1451 1452 1452 1451 1451 1450 1448 1446 1444 1441 1438 1435 1432 1428 1425 1421 1417 1412 1408 1404 1400 1396 1392 1388 1384 1380 1377 1373 1369 1366 1362 1359 1356
1432 1433 1434 1436 1437 1439 1441 1443 1445 1446 1447 1448 1448 1448 1448 1447 1446 1444 1442 1440 1437 1434 1431 1427 1423 1420 1416 1411 1407 1403 1398 1394 1391 1387 1383 1379 1375 1371 1368 1364 1361 1357 1354 1351
1427 1429 1431 1432 1434 1436 1438 1440 1442 1443 1444 1445 1445 1445 1444 1443 1442 1440 1438 1436 1433 1430 1427 1423 1419 1415 1411 1407 1402 1398 1394 1390 1386 1382 1378 1374 1370 1366 1363 1359 1355 1352 1348 1346
1423 1426 1428 1430 1432 1434 1436 1438 1439 1440 1441 1442 1442 1441 1440 1439 1438 1436 1434 1431 1428 1425 1422 1418 1414 1410 1406 1402 1398 1394 1390 1385 1381 1377 1373 1369 1365 1361 1358 1354 1351 1347 1344 1341
1421 1423 1425 1427 1430 1432 1433 1435 1436 1437 1438 1438 1438 1438 1437 1436 1434 1432 1429 1427 1424 1420 1417 1413 1410 1406 1402 1398 1394 1390 1385 1381 1377 1372 1368 1364 1361 1357 1353 1350 1346 1343 1340 1337
1420 1422 1423 1426 1428 1430 1431 1433 1434 1434 1435 1435 1435 1434 1433 1432 1430 1427 1425 1422 1420 1416 1413 1409 1406 1402 1398 1394 1390 1385 1381 1377 1373 1368 1365 1361 1357 1353 1349 1346 1343 1339 1336 1333
1419 1421 1422 1424 1426 1427 1429 1430 1431 1431 1432 1431 1431 1430 1429 1428 1426 1423 1421 1419 1415 1412 1409 1405 1401 1398 1394 1390 1386 1381 1377 1373 1369 1365 1361 1357 1353 1349 1346 1343 1339 1336 1333 1330
1418 1420 1421 1423 1424 1426 1427 1427 1428 1428 1428 1428 1427 1426 1425 1423 1421 1419 1417 1414 1411 1408 1404 1401 1397 1394 1390 1386 1382 1378 1373 1369 1365 1361 1357 1354 1350 1346 1343 1339 1336 1333 1329 1326
1416 1418 1420 1421 1422 1423 1424 1424 1425 1425 1424 1424 1423 1422 1421 1419 1417 1415 1412 1410 1407 1404 1400 1397 1394 1390 1386 1382 1378 1374 1370 1366 1362 1358 1354 1350 1347 1343 1340 1336 1333 1330 1326 1323
1414 1416 1417 1418 1419 1420 1421 1421 1421 1421 1421 1420 1419 1418 1417 1415 1413 1411 1409 1406 1403 1400 1397 1393 1390 1386 1382 1379 1375 1371 1367 1363 1359 1355 1351 1347 1343 1340 1336 1333 1329 1326 1323 1320
1411 1413 1414 1415 1416 1417 1417 1417 1417 1417 1417 1416 1415 1414 1413 1411 1409 1407 1405 1402 1399 1396 1393 1390 1386 1383 1379 1375 1371 1367 1363 1359 1355 1352 1348 1344 1340 1337 1333 1330 1327 1324 1321 1318
1408 1409 1410 1411 1412 1412 1413 1413 1413 1413 1412 1412 1411 1410 1409 1407 1405 1403 1401 1398 1396 1393 1390 1386 1383 1379 1375 1372 1368 1364 1360 1356 1352 1348 1345 1341 1338 1334 1331 1328 1324 1322 1319 1316